Location: Caracas
(10.5033°N, 66.8422°W)
Time: 17:24:53
(UTC-04:00)

Vanguard 3 - Visible Passes

Search period start: 26 April 2018 00:00
Search period end: 06 May 2018 00:00
Orbit: 508 x 3264 km, 33.3° (Epoch: 26 April)

Date Brightness Start Highest point End Pass type
(mag) Time Alt. Az. Time Alt. Az. Time Alt. Az.
26 Apr 10.4 02:02:27 19° E 02:02:27 19° E 02:05:44 10° ESE visible
26 Apr 8.7 04:07:06 54° WSW 04:08:47 59° SSW 04:23:55 10° SE visible
27 Apr 9.4 02:58:17 42° SE 02:58:17 42° SE 03:06:48 10° SE visible
27 Apr 9.6 05:02:56 22° WSW 05:08:42 33° SSW 05:22:39 10° SSE visible
28 Apr 9.1 03:54:03 46° SSW 03:54:03 46° SSW 04:06:24 10° SE visible
29 Apr 10.1 02:45:08 24° SE 02:45:08 24° SE 02:49:46 10° SE visible
29 Apr 9.7 04:49:47 23° SW 04:52:52 26° SSW 05:04:37 10° SSE visible
30 Apr 9.7 03:40:47 30° S 03:40:47 30° S 03:48:48 10° SSE visible
30 Apr 10.4 05:48:09 10° SW 05:53:58 14° SSW 06:00:58 10° S visible
01 May 10.7 02:31:44 13° SE 02:31:44 13° SE 02:32:42 10° SE visible
01 May 9.9 04:36:22 20° SSW 04:37:12 20° SSW 04:46:21 10° SSE visible
02 May 10.3 03:27:15 18° SSE 03:27:15 18° SSE 03:31:06 10° SSE visible
03 May 10.3 04:22:41 14° SSW 04:22:41 14° SSW 04:27:35 10° S visible
